SCP
0 0 0 0 0 0 0 0 0 0 0 0 0 0 0 0 0 0 0 0 0 0 0 0 0 0 0 0 0 0 0 0 0 0 0 -0 -0 0
0 0 0 0 0 0 0 0 0 0 0 0 0 0 0 0 0 0 0 0 0 0 0 0 0 0 0 0 0 0 0 0 0 0 0 -0 0 -0
0 0 0 0 0 0 0 0 0 0 0 0 0 0 0 0 0 0 0 0 0 0 0 0 0 0 0 0 0 0 -0 -0 0 0 0 0 0 0
0 0 0 0 0 0 0 0 0 0 0 0 0 0 0 0 0 0 0 0 0 0 0 0 0 0 0 0 -0 -0 -0 0 0 -0 0 0 0 0
0 0 0 0 0 0 0 0 0 0 0 0 0 0 0 0 0 0 0 0 0 0 0 0 0 0 0 0 -0 -0 0 0 0 0 0 0 0 0
0 0 0 0 0 0 0 0 0 0 0 0 0 0 0 0 0 0 0 0 0 0 0 0 0 0 0 0 -0 0 0 0 0 0 0 0 0 0
0 0 0 0 0 0 0 0 0 0 0 0 0 0 0 0 0 0 0 0 0 0 0 0 0 0 0 0 -0 0 0 0 0 0 0 0 0 0
0 0 0 0 0 0 0 0 0 0 0 0 0 0 0 0 0 0 0 0 0 0 0 0 0 0 0 0 0 0 0 0 0 0 0 0 0 0
0 0 0 0 0 0 0 0 0 0 0 0 0 0 0 0 0 0 0 0 0 0 0 0 0 0 0 0 0 -0 -0 -0 0 0 0 0 0 0
0 0 0 0 0 0 0 0 0 0 0 0 0 0 0 0 0 0 0 0 0 0 0 0 0 0 0 0 0 -0 -0 -0 -0 -0 -0 0 -0 -0
0 0 0 0 0 0 0 0 0 0 0 0 0 0 0 0 0 -0 0 0 0 0 0 0 0 0 0 0 0 0 -0 -0 -0 -0 -0 -0 -0 -0
0 0 0 0 0 0 0 0 0 0 0 0 -0 0 0 0 -0 -0 0 0 0 0 0 0 0 0 0 0 0 0 0 -0 -0 -0 -0 -0 -0 -0
0 0 0 0 0 0 0 0 0 0 0 0 0 0 0 0 0 -0 -0 0 0 0 0 0 0 0 0 0 0 0 0 0 0 -0 -0 -0 -0 -0
0 0 0 0 0 0 0 0 0 0 0 0 0 0 0 0 0 -0 0 0 0 0 0 0 0 0 0 0 0 0 0 0 0 -0 0 0 -0 -0
0 0 0 0 0 0 0 0 0 0 0 0 0 0 0 0 0 0 0 0 0 0 0 0 0 0 0 0 0 0 0 0 0 0 0 0 0 0
0 0 0 0 0 0 0 0 0 0 0 0 0 0 0 0 0 0 0 0 0 0 0 0 0 0 0 0 0 0 0 0 0 0 0 0 0 0
0 0 0 0 0 0 0 0 0 0 0 0 0 0 0 0 0 0 0 0 0 0 0 0 0 0 0 0 0 0 0 0 0 0 0 -0 -0 -0
0 0 0 0 0 0 0 0 0 0 0 0 0 0 0 0 0 0 0 0 0 0 0 0 0 0 0 0 0 0 0 0 0 0 0 -0 -0 -0
0 0 0 0 0 0 0 0 0 0 0 0 0 0 0 0 0 0 0 0 0 0 0 0 0 0 0 0 0 0 0 0 0 0 0 0 0 0
0 0 0 0 0 0 0 0 0 0 0 0 0 0 0 0 -0 -0 0 0 0 0 0 0 0 0 0 0 0 0 0 0 0 0 0 0 0 0
0 0 0 0 0 0 0 0 0 0 0 0 0 0 0 -0 -0 -0 0 0 0 0 0 0 0 0 0 0 0 0 0 0 0 0 0 -0 0 0
0 0 0 0 0 0 0 0 0 0 0 0 0 0 -0 -0 -0 0 0 0 0 0 0 0 0 0 0 0 0 0 0 0 0 -0 -0 -0 0 0
0 0 0 0 0 0 0 0 0 0 0 0 -0 -0 -0 -0 -0 0 0 0 0 0 0 0 0 0 0 0 0 0 0 0 0 0 -0 -0 -0 -0
Wind_Speed_500mb
40 43 46 43 40 39 41 44 49 55 53 45 45 57 59 58 51 50 42 41 42 45 48 49 48 39 38 45 48 52 50 48 51 55 58 63 67 70
46 49 50 47 43 41 44 47 49 57 64 52 62 63 59 55 60 61 54 48 44 43 45 47 43 39 36 42 47 50 57 55 56 54 56 60 70 68
52 55 60 57 55 53 52 52 52 48 57 60 60 61 61 63 60 56 55 51 44 40 43 42 35 35 34 41 47 51 56 60 61 61 57 59 67 71
54 59 66 68 60 52 49 54 51 47 54 60 60 59 55 53 50 54 53 45 38 37 42 35 33 30 31 38 45 52 56 59 62 56 52 58 63 72
56 57 64 69 62 55 46 51 57 58 56 56 61 57 51 61 61 51 49 41 32 33 31 29 26 22 26 34 46 50 56 54 57 54 52 55 59 65
52 54 63 57 49 49 39 43 50 47 44 49 54 49 57 54 47 51 53 37 31 26 19 21 21 17 23 34 47 53 50 46 42 42 40 45 53 58
49 56 54 42 39 42 44 45 47 50 50 54 58 57 47 47 49 52 51 44 30 23 25 17 15 14 25 34 45 52 51 35 33 27 18 34 43 50
52 47 40 35 43 45 45 42 41 46 46 45 48 48 47 41 47 47 41 44 50 28 40 14 14 19 26 33 44 45 49 22 19 23 9 23 33 42
45 42 40 41 44 46 47 43 41 40 39 40 41 40 43 42 35 44 34 38 38 34 38 28 19 15 24 33 40 41 53 16 10 16 9 11 20 30
40 38 38 47 48 48 44 45 42 44 38 37 38 39 38 34 36 41 37 36 26 22 18 28 24 19 19 29 36 41 46 28 8 9 7 1 15 23
41 39 42 49 44 42 42 46 44 41 38 35 32 32 34 34 34 39 33 28 27 22 19 34 32 23 18 28 34 32 38 40 13 15 20 17 13 30
44 37 42 48 49 46 44 46 48 43 38 33 31 29 34 34 30 28 24 24 25 16 24 30 30 25 13 27 31 27 31 34 13 19 25 25 28 33
52 47 43 47 49 46 43 44 46 47 42 33 31 30 31 25 20 17 16 21 22 20 19 24 28 24 14 19 30 29 37 41 19 33 33 32 41 36
54 50 49 47 50 49 47 43 41 40 37 33 28 26 26 21 15 15 15 17 21 20 18 15 22 22 14 17 19 34 34 38 35 48 61 57 48 47
46 46 48 48 52 52 49 41 37 35 33 30 25 22 22 16 15 11 10 15 12 9 10 8 18 7 3 11 23 40 43 56 61 59 69 72 66 65
41 48 51 52 55 54 51 41 37 32 28 28 27 18 19 15 10 11 4 6 7 10 14 5 2 8 13 11 17 15 33 50 50 56 57 63 64 61
57 57 55 53 56 52 47 44 39 33 27 25 24 19 14 15 8 5 3 2 3 6 11 9 10 13 20 16 25 35 48 50 45 54 58 63 59 53
47 48 52 52 50 46 47 45 39 33 28 25 21 18 14 15 8 3 2 2 3 5 12 17 25 21 23 19 31 33 39 46 43 41 50 56 57 50
44 46 49 49 47 45 45 41 37 33 26 23 20 17 13 15 7 4 3 4 5 5 17 10 16 23 40 29 38 38 39 34 30 31 36 44 49 43
52 52 51 49 46 45 41 39 32 31 24 19 16 14 15 20 14 8 8 6 10 13 13 14 17 34 44 48 49 37 28 26 29 37 39 39 42 38
58 56 53 50 45 40 37 35 28 26 20 15 13 11 17 22 16 13 12 10 13 18 14 15 13 24 43 43 48 40 36 31 31 33 33 33 37 32
55 52 48 43 39 36 34 29 24 18 12 9 10 11 19 22 18 17 16 16 18 21 18 17 12 35 41 38 52 44 38 29 26 25 26 20 16 16
53 49 46 41 36 32 27 21 17 12 7 4 10 13 22 25 23 20 21 22 23 25 30 24 24 43 52 57 50 40 34 30 29 27 37 33 27 31
Wind_Direction_500mb
349 349 345 336 324 314 309 312 308 306 304 302 303 318 321 320 323 324 313 297 294 295 298 300 306 300 292 292 284 289 287 289 292 279 272 252 245 238
338 339 339 334 323 320 315 309 303 301 299 298 304 309 311 312 314 314 310 302 294 297 300 300 300 295 296 297 295 293 289 285 286 282 271 256 243 237
329 325 331 328 317 307 310 310 305 307 299 302 306 307 307 307 306 303 305 300 295 294 302 300 289 291 293 297 300 299 293 291 289 289 265 253 242 235
317 317 322 323 321 316 305 307 301 304 299 303 307 314 312 311 314 313 313 301 296 303 297 297 284 287 294 305 313 309 303 299 296 285 269 248 240 233
308 310 315 321 321 321 314 308 309 305 298 297 307 312 314 314 317 314 316 310 296 309 298 298 292 284 301 318 324 320 320 310 299 284 265 243 236 232
304 307 315 319 326 334 324 319 314 310 310 306 307 308 315 320 325 327 325 323 316 317 297 303 297 299 319 326 327 331 327 320 309 294 252 236 232 225
308 309 312 321 328 336 332 328 322 317 307 303 304 309 310 318 320 327 329 333 325 340 334 331 307 322 338 338 334 340 340 330 328 327 234 227 229 222
311 312 312 323 326 327 328 328 327 325 315 316 310 308 311 317 311 318 322 341 331 353 336 5 331 359 351 350 343 350 349 338 339 352 281 222 224 216
318 317 318 321 316 316 324 329 332 326 314 308 309 305 312 322 321 322 318 326 325 339 336 347 345 357 1 356 350 348 0 354 341 339 295 253 220 207
322 323 327 328 318 314 323 328 330 330 321 315 310 307 306 313 313 315 315 325 323 335 343 344 354 359 18 7 356 350 4 21 40 346 29 100 201 194
326 326 326 334 327 321 320 320 328 333 333 324 312 308 310 310 304 302 307 331 346 351 11 353 358 351 30 13 6 359 3 20 42 42 58 75 125 172
325 320 325 329 331 327 319 319 320 323 323 329 328 313 314 315 307 292 292 314 331 348 1 353 359 9 4 18 20 28 46 43 64 79 64 77 101 127
323 323 321 324 330 328 323 315 311 313 317 316 319 314 318 319 314 300 285 300 302 307 338 345 335 3 23 6 35 47 70 68 81 123 111 100 101 107
308 312 314 317 323 330 324 314 309 305 305 309 314 318 316 319 321 301 292 286 292 316 330 326 317 339 9 35 58 63 83 84 91 122 121 124 117 110
296 298 306 313 317 321 328 322 316 307 302 300 303 316 311 314 325 311 278 278 286 292 348 265 311 317 65 52 85 76 76 89 99 97 105 111 105 105
306 298 306 312 312 319 327 325 323 315 303 295 293 299 300 297 306 315 271 280 260 266 344 305 57 147 130 111 112 49 99 89 92 97 97 98 97 97
303 303 308 311 314 318 324 325 322 314 301 294 285 285 282 279 285 301 257 290 279 223 25 135 140 147 145 122 105 110 107 100 94 98 96 93 89 91
315 311 310 314 319 322 324 322 319 313 303 294 280 267 260 253 261 263 232 177 52 77 45 121 136 145 144 128 126 125 121 115 109 99 97 97 91 87
326 325 326 325 321 318 320 318 315 314 302 289 281 256 246 219 221 222 179 131 124 97 59 101 131 146 150 121 129 117 106 101 103 100 98 98 97 91
340 334 329 326 321 318 319 319 313 312 304 284 271 252 224 196 202 201 166 130 134 111 66 106 87 152 135 126 117 113 110 104 101 95 94 94 93 94
339 335 331 330 329 326 323 320 314 308 299 278 256 236 200 191 191 182 157 130 129 114 98 97 116 144 136 136 126 118 110 102 95 92 96 95 97 102
340 337 337 336 333 332 329 326 324 320 302 259 228 207 186 182 179 168 153 142 137 120 130 101 96 150 150 157 129 122 115 105 91 86 86 90 114 108
348 348 347 347 346 345 343 350 351 349 338 231 194 178 171 169 161 156 144 139 134 137 132 121 130 153 147 134 127 121 115 111 107 100 83 76 95 99
Wind_Speed_850mb
40 43 46 43 40 39 41 44 49 55 53 45 45 57 59 58 51 50 42 41 42 45 48 49 48 39 38 45 48 52 50 48 51 55 58 63 67 70
46 49 50 47 43 41 44 47 49 57 64 52 62 63 59 55 60 61 54 48 44 43 45 47 43 39 36 42 47 50 57 55 56 54 56 60 70 68
52 55 60 57 55 53 52 52 52 48 57 60 60 61 61 63 60 56 55 51 44 40 43 42 35 35 34 41 47 51 56 60 61 61 57 59 67 71
54 59 66 68 60 52 49 54 51 47 54 60 60 59 55 53 50 54 53 45 38 37 42 35 33 30 31 38 45 52 56 59 62 56 52 58 63 72
56 57 64 69 62 55 46 51 57 58 56 56 61 57 51 61 61 51 49 41 32 33 31 29 26 22 26 34 46 50 56 54 57 54 52 55 59 65
52 54 63 57 49 49 39 43 50 47 44 49 54 49 57 54 47 51 53 37 31 26 19 21 21 17 23 34 47 53 50 46 42 42 40 45 53 58
49 56 54 42 39 42 44 45 47 50 50 54 58 57 47 47 49 52 51 44 30 23 25 17 15 14 25 34 45 52 51 35 33 27 18 34 43 50
52 47 40 35 43 45 45 42 41 46 46 45 48 48 47 41 47 47 41 44 50 28 40 14 14 19 26 33 44 45 49 22 19 23 9 23 33 42
45 42 40 41 44 46 47 43 41 40 39 40 41 40 43 42 35 44 34 38 38 34 38 28 19 15 24 33 40 41 53 16 10 16 9 11 20 30
40 38 38 47 48 48 44 45 42 44 38 37 38 39 38 34 36 41 37 36 26 22 18 28 24 19 19 29 36 41 46 28 8 9 7 1 15 23
41 39 42 49 44 42 42 46 44 41 38 35 32 32 34 34 34 39 33 28 27 22 19 34 32 23 18 28 34 32 38 40 13 15 20 17 13 30
44 37 42 48 49 46 44 46 48 43 38 33 31 29 34 34 30 28 24 24 25 16 24 30 30 25 13 27 31 27 31 34 13 19 25 25 28 33
52 47 43 47 49 46 43 44 46 47 42 33 31 30 31 25 20 17 16 21 22 20 19 24 28 24 14 19 30 29 37 41 19 33 33 32 41 36
54 50 49 47 50 49 47 43 41 40 37 33 28 26 26 21 15 15 15 17 21 20 18 15 22 22 14 17 19 34 34 38 35 48 61 57 48 47
46 46 48 48 52 52 49 41 37 35 33 30 25 22 22 16 15 11 10 15 12 9 10 8 18 7 3 11 23 40 43 56 61 59 69 72 66 65
41 48 51 52 55 54 51 41 37 32 28 28 27 18 19 15 10 11 4 6 7 10 14 5 2 8 13 11 17 15 33 50 50 56 57 63 64 61
57 57 55 53 56 52 47 44 39 33 27 25 24 19 14 15 8 5 3 2 3 6 11 9 10 13 20 16 25 35 48 50 45 54 58 63 59 53
47 48 52 52 50 46 47 45 39 33 28 25 21 18 14 15 8 3 2 2 3 5 12 17 25 21 23 19 31 33 39 46 43 41 50 56 57 50
44 46 49 49 47 45 45 41 37 33 26 23 20 17 13 15 7 4 3 4 5 5 17 10 16 23 40 29 38 38 39 34 30 31 36 44 49 43
52 52 51 49 46 45 41 39 32 31 24 19 16 14 15 20 14 8 8 6 10 13 13 14 17 34 44 48 49 37 28 26 29 37 39 39 42 38
58 56 53 50 45 40 37 35 28 26 20 15 13 11 17 22 16 13 12 10 13 18 14 15 13 24 43 43 48 40 36 31 31 33 33 33 37 32
55 52 48 43 39 36 34 29 24 18 12 9 10 11 19 22 18 17 16 16 18 21 18 17 12 35 41 38 52 44 38 29 26 25 26 20 16 16
53 49 46 41 36 32 27 21 17 12 7 4 10 13 22 25 23 20 21 22 23 25 30 24 24 43 52 57 50 40 34 30 29 27 37 33 27 31
Wind_Direction_850mb
349 349 345 336 324 314 309 312 308 306 304 302 303 318 321 320 323 324 313 297 294 295 298 300 306 300 292 292 284 289 287 289 292 279 272 252 245 238
338 339 339 334 323 320 315 309 303 301 299 298 304 309 311 312 314 314 310 302 294 297 300 300 300 295 296 297 295 293 289 285 286 282 271 256 243 237
329 325 331 328 317 307 310 310 305 307 299 302 306 307 307 307 306 303 305 300 295 294 302 300 289 291 293 297 300 299 293 291 289 289 265 253 242 235
317 317 322 323 321 316 305 307 301 304 299 303 307 314 312 311 314 313 313 301 296 303 297 297 284 287 294 305 313 309 303 299 296 285 269 248 240 233
308 310 315 321 321 321 314 308 309 305 298 297 307 312 314 314 317 314 316 310 296 309 298 298 292 284 301 318 324 320 320 310 299 284 265 243 236 232
304 307 315 319 326 334 324 319 314 310 310 306 307 308 315 320 325 327 325 323 316 317 297 303 297 299 319 326 327 331 327 320 309 294 252 236 232 225
308 309 312 321 328 336 332 328 322 317 307 303 304 309 310 318 320 327 329 333 325 340 334 331 307 322 338 338 334 340 340 330 328 327 234 227 229 222
311 312 312 323 326 327 328 328 327 325 315 316 310 308 311 317 311 318 322 341 331 353 336 5 331 359 351 350 343 350 349 338 339 352 281 222 224 216
318 317 318 321 316 316 324 329 332 326 314 308 309 305 312 322 321 322 318 326 325 339 336 347 345 357 1 356 350 348 0 354 341 339 295 253 220 207
322 323 327 328 318 314 323 328 330 330 321 315 310 307 306 313 313 315 315 325 323 335 343 344 354 359 18 7 356 350 4 21 40 346 29 100 201 194
326 326 326 334 327 321 320 320 328 333 333 324 312 308 310 310 304 302 307 331 346 351 11 353 358 351 30 13 6 359 3 20 42 42 58 75 125 172
325 320 325 329 331 327 319 319 320 323 323 329 328 313 314 315 307 292 292 314 331 348 1 353 359 9 4 18 20 28 46 43 64 79 64 77 101 127
323 323 321 324 330 328 323 315 311 313 317 316 319 314 318 319 314 300 285 300 302 307 338 345 335 3 23 6 35 47 70 68 81 123 111 100 101 107
308 312 314 317 323 330 324 314 309 305 305 309 314 318 316 319 321 301 292 286 292 316 330 326 317 339 9 35 58 63 83 84 91 122 121 124 117 110
296 298 306 313 317 321 328 322 316 307 302 300 303 316 311 314 325 311 278 278 286 292 348 265 311 317 65 52 85 76 76 89 99 97 105 111 105 105
306 298 306 312 312 319 327 325 323 315 303 295 293 299 300 297 306 315 271 280 260 266 344 305 57 147 130 111 112 49 99 89 92 97 97 98 97 97
303 303 308 311 314 318 324 325 322 314 301 294 285 285 282 279 285 301 257 290 279 223 25 135 140 147 145 122 105 110 107 100 94 98 96 93 89 91
315 311 310 314 319 322 324 322 319 313 303 294 280 267 260 253 261 263 232 177 52 77 45 121 136 145 144 128 126 125 121 115 109 99 97 97 91 87
326 325 326 325 321 318 320 318 315 314 302 289 281 256 246 219 221 222 179 131 124 97 59 101 131 146 150 121 129 117 106 101 103 100 98 98 97 91
340 334 329 326 321 318 319 319 313 312 304 284 271 252 224 196 202 201 166 130 134 111 66 106 87 152 135 126 117 113 110 104 101 95 94 94 93 94
339 335 331 330 329 326 323 320 314 308 299 278 256 236 200 191 191 182 157 130 129 114 98 97 116 144 136 136 126 118 110 102 95 92 96 95 97 102
340 337 337 336 333 332 329 326 324 320 302 259 228 207 186 182 179 168 153 142 137 120 130 101 96 150 150 157 129 122 115 105 91 86 86 90 114 108
348 348 347 347 346 345 343 350 351 349 338 231 194 178 171 169 161 156 144 139 134 137 132 121 130 153 147 134 127 121 115 111 107 100 83 76 95 99